TimeCST,TemperatureF,Dew PointF,Humidity,Sea Level PressureIn,VisibilityMPH,Wind Direction,Wind SpeedMPH,Gust SpeedMPH,PrecipitationIn,Events,Conditions,WindDirDegrees,DateUTC
12:00 AM,-0.4,-0.4,100,30.09,10.0,NW,17.3,-,N/A,,Clear,320,2012-12-10 06:00:00
12:20 AM,-2.2,-2.2,100,30.09,10.0,NW,13.8,-,N/A,,Clear,320,2012-12-10 06:20:00
12:40 AM,-2.2,-2.2,100,30.08,10.0,NW,12.7,-,N/A,,Mostly Cloudy,320,2012-12-10 06:40:00
1:00 AM,-4.0,-4.0,100,30.07,10.0,NW,15.0,-,N/A,,Mostly Cloudy,320,2012-12-10 07:00:00
1:20 AM,-4.0,-4.0,100,30.06,10.0,NW,12.7,-,N/A,,Partly Cloudy,320,2012-12-10 07:20:00
1:40 AM,-2.2,-4.0,92,30.05,10.0,NW,15.0,-,N/A,,Clear,320,2012-12-10 07:40:00
2:00 AM,-4.0,-4.0,100,30.05,10.0,NW,12.7,-,N/A,,Clear,320,2012-12-10 08:00:00
2:40 AM,-4.0,-4.0,100,30.04,10.0,NW,12.7,-,N/A,,Clear,320,2012-12-10 08:40:00
3:00 AM,-4.0,-4.0,100,30.04,10.0,NNW,5.8,-,N/A,,Clear,330,2012-12-10 09:00:00
3:20 AM,-4.0,-5.8,92,30.04,10.0,WNW,8.1,-,N/A,,Clear,300,2012-12-10 09:20:00
3:40 AM,-4.0,-5.8,92,30.03,10.0,WNW,9.2,-,N/A,,Clear,290,2012-12-10 09:40:00
4:00 AM,-5.8,-7.6,92,30.03,10.0,WNW,10.4,-,N/A,,Clear,300,2012-12-10 10:00:00
4:20 AM,-7.6,-7.6,100,30.02,10.0,NW,10.4,-,N/A,,Clear,310,2012-12-10 10:20:00
4:40 AM,-7.6,-9.4,92,30.01,10.0,NW,8.1,-,N/A,,Clear,320,2012-12-10 10:40:00
5:00 AM,-7.6,-9.4,92,30.00,10.0,NW,8.1,-,N/A,,Clear,310,2012-12-10 11:00:00
5:20 AM,-7.6,-9.4,92,29.99,10.0,NW,6.9,-,N/A,,Clear,320,2012-12-10 11:20:00
5:40 AM,-9.4,-9.4,100,29.98,10.0,NNW,6.9,-,N/A,,Clear,340,2012-12-10 11:40:00
6:00 AM,-9.4,-9.4,100,29.97,10.0,NNW,8.1,-,N/A,,Clear,340,2012-12-10 12:00:00
6:20 AM,-9.4,-11.2,92,29.96,10.0,NW,8.1,-,N/A,,Clear,320,2012-12-10 12:20:00
6:40 AM,-9.4,-11.2,92,29.96,10.0,NW,5.8,-,N/A,,Clear,310,2012-12-10 12:40:00
7:00 AM,-5.8,-7.6,92,29.97,10.0,WNW,5.8,-,N/A,,Clear,300,2012-12-10 13:00:00
7:20 AM,-7.6,-9.4,92,29.97,10.0,WNW,6.9,-,N/A,,Clear,290,2012-12-10 13:20:00
7:40 AM,-4.0,-4.0,100,29.96,10.0,WNW,6.9,-,N/A,,Clear,300,2012-12-10 13:40:00
8:00 AM,-5.8,-7.6,92,29.96,10.0,WNW,4.6,-,N/A,,Clear,290,2012-12-10 14:00:00
8:20 AM,-4.0,-4.0,100,29.97,10.0,West,4.6,-,N/A,,Clear,260,2012-12-10 14:20:00
8:40 AM,-4.0,-4.0,100,29.96,10.0,Calm,Calm,-,N/A,,Clear,0,2012-12-10 14:40:00
9:00 AM,-4.0,-4.0,100,29.96,10.0,Calm,Calm,-,N/A,,Clear,0,2012-12-10 15:00:00
9:20 AM,-2.2,-2.2,100,29.95,10.0,SW,3.5,-,N/A,,Clear,230,2012-12-10 15:20:00
9:40 AM,-2.2,-2.2,100,29.94,10.0,Calm,Calm,-,N/A,,Clear,0,2012-12-10 15:40:00
10:00 AM,-0.4,-0.4,100,29.95,10.0,South,5.8,-,N/A,,Clear,180,2012-12-10 16:00:00
10:20 AM,-0.4,-0.4,100,29.94,10.0,SSE,3.5,-,N/A,,Clear,160,2012-12-10 16:20:00
10:40 AM,1.4,1.4,100,29.93,10.0,Calm,Calm,-,N/A,,Clear,0,2012-12-10 16:40:00
11:00 AM,1.4,1.4,100,29.93,10.0,South,6.9,-,N/A,,Clear,190,2012-12-10 17:00:00
11:20 AM,3.2,3.2,100,29.91,10.0,South,8.1,-,N/A,,Clear,170,2012-12-10 17:20:00
11:40 AM,5.0,5.0,100,29.89,10.0,SSE,8.1,-,N/A,,Clear,160,2012-12-10 17:40:00
12:00 PM,5.0,5.0,100,29.88,10.0,South,11.5,-,N/A,,Clear,180,2012-12-10 18:00:00
12:20 PM,6.8,6.8,100,29.87,10.0,South,10.4,-,N/A,,Clear,180,2012-12-10 18:20:00
12:40 PM,6.8,6.8,100,29.86,10.0,South,9.2,-,N/A,,Clear,170,2012-12-10 18:40:00
1:00 PM,6.8,6.8,100,29.85,10.0,South,9.2,-,N/A,,Clear,170,2012-12-10 19:00:00
1:20 PM,8.6,6.8,92,29.83,10.0,South,10.4,-,N/A,,Clear,180,2012-12-10 19:20:00
1:40 PM,8.6,6.8,92,29.82,10.0,South,9.2,-,N/A,,Clear,170,2012-12-10 19:40:00
2:00 PM,8.6,6.8,92,29.81,10.0,South,9.2,-,N/A,,Clear,170,2012-12-10 20:00:00
2:20 PM,8.6,6.8,92,29.81,10.0,South,10.4,-,N/A,,Clear,180,2012-12-10 20:20:00
2:40 PM,8.6,6.8,92,29.79,10.0,South,9.2,-,N/A,,Mostly Cloudy,170,2012-12-10 20:40:00
3:00 PM,10.4,8.6,92,29.79,10.0,South,11.5,-,N/A,,Scattered Clouds,180,2012-12-10 21:00:00
3:20 PM,10.4,8.6,92,29.78,10.0,South,10.4,-,N/A,,Mostly Cloudy,180,2012-12-10 21:20:00
3:40 PM,10.4,8.6,92,29.79,10.0,SSW,11.5,-,N/A,,Scattered Clouds,200,2012-12-10 21:40:00
4:00 PM,10.4,8.6,92,29.79,10.0,SSW,12.7,-,N/A,,Clear,210,2012-12-10 22:00:00
4:20 PM,10.4,8.6,92,29.79,10.0,South,13.8,-,N/A,,Scattered Clouds,190,2012-12-10 22:20:00
4:40 PM,10.4,10.4,100,29.79,10.0,SSW,11.5,-,N/A,,Overcast,200,2012-12-10 22:40:00
5:00 PM,10.4,10.4,100,29.79,10.0,SSW,11.5,-,N/A,,Mostly Cloudy,200,2012-12-10 23:00:00
5:20 PM,10.4,10.4,100,29.78,10.0,South,11.5,-,N/A,,Overcast,190,2012-12-10 23:20:00
5:40 PM,10.4,10.4,100,29.79,10.0,SSW,9.2,-,N/A,,Overcast,200,2012-12-10 23:40:00
6:00 PM,12.2,12.2,100,29.77,10.0,South,11.5,-,N/A,,Overcast,190,2012-12-11 00:00:00
6:20 PM,12.2,12.2,100,29.77,10.0,South,10.4,-,N/A,,Overcast,180,2012-12-11 00:20:00
6:40 PM,14.0,14.0,100,29.77,10.0,SSW,10.4,-,N/A,,Overcast,200,2012-12-11 00:40:00
7:00 PM,14.0,14.0,100,29.78,10.0,SW,8.1,-,N/A,,Mostly Cloudy,220,2012-12-11 01:00:00
7:20 PM,15.8,15.8,100,29.78,10.0,SW,9.2,-,N/A,Snow,Light Snow,230,2012-12-11 01:20:00
7:40 PM,15.8,15.8,100,29.77,10.0,SW,9.2,-,N/A,,Overcast,230,2012-12-11 01:40:00
8:00 PM,15.8,15.8,100,29.78,10.0,WSW,10.4,-,N/A,,Overcast,250,2012-12-11 02:00:00
8:40 PM,14.0,14.0,100,29.78,10.0,WSW,9.2,-,N/A,,Scattered Clouds,250,2012-12-11 02:40:00
9:00 PM,15.8,15.8,100,29.78,10.0,West,9.2,-,N/A,,Overcast,260,2012-12-11 03:00:00
9:20 PM,17.6,17.6,100,29.78,10.0,West,9.2,-,N/A,,Overcast,260,2012-12-11 03:20:00
9:40 PM,17.6,17.6,100,29.77,10.0,West,11.5,16.1,N/A,,Overcast,280,2012-12-11 03:40:00
10:00 PM,17.6,17.6,100,29.77,10.0,West,9.2,-,N/A,,Scattered Clouds,280,2012-12-11 04:00:00
10:20 PM,15.8,15.8,100,29.77,10.0,West,12.7,-,N/A,,Clear,280,2012-12-11 04:20:00
10:40 PM,15.8,15.8,100,29.78,10.0,West,12.7,-,N/A,,Scattered Clouds,270,2012-12-11 04:40:00
11:00 PM,15.8,15.8,100,29.78,10.0,West,11.5,-,N/A,,Overcast,280,2012-12-11 05:00:00
11:20 PM,15.8,15.8,100,29.79,10.0,West,9.2,-,N/A,,Overcast,280,2012-12-11 05:20:00
11:40 PM,15.8,15.8,100,29.78,10.0,West,11.5,-,N/A,,Overcast,280,2012-12-11 05:40:00